Location: Alfortville
(48.8058°N, 2.4204°E)
Time: 22:35:51
(UTC+00:00)

SR - Pass Details

Date: 21 April 2026
Orbit: 568 x 852 km, 66.7° (Epoch: 19 May)

Event Time Altitude Azimuth Distance (km) Brightness Sun altitude
Rises 21:40:26 0° 322° (NW) 3,298 ? -22.8°
Reaches altitude 10° 21:42:50 10° 318° (NW) 2,399 ? -23.0°
Maximum altitude 21:48:18 59° 241° (WSW) 961 ? -23.5°
Enters shadow 21:49:34 48° 193° (SSW) 1,096 ? -23.6°
